Tracking 18980 objects as of 19-Feb-2018
HD Live streaming from Space Station
objects crossing your sky now

FENGYUN 1C DEB

Track FENGYUN 1C DEB now!
10-day predictions


NORAD ID: 36712
Int'l Code: 1999-025EAJ
Perigee: 676.0 km
Apogee: 758.2 km
Inclination: 99.0 °
Period: 99.0 minutes
Semi major axis: 7088 km
RCS: 0.0098 m2 (small)
Launch date: May 10, 1999
Source: People's Republic of China (PRC)
Launch site: Taiyaun Space Center, China (TSC)

Note: This is SATELLITE DEBRIS
aabbcc
Your satellite tracking list
Your tracking list is empty




NASA's NSSDC Master Catalog

Two Line Element Set (TLE):
1 36712U 99025EAJ 18045.82805665 +.00001787 +00000-0 +41986-3 0  9996
2 36712 098.9504 258.2977 0057936 327.7236 032.0419 14.54816808498315
Source of the keplerian elements: AFSPC